Location: Antioch Church
(34.9543°N, 88.5145°W)
Time: 01:50:23
(UTC+00:00)

Geosat - Pass Details

Date: 11 December 2019
Orbit: 763 x 766 km, 108.0° (Epoch: 25 January)

Event Time Altitude Azimuth Distance (km) Brightness Sun altitude
Rises 11:45:53 0° 165° (SSE) 3,210 7.7 -13.2°
Reaches altitude 10° 11:48:12 10° 169° (S) 2,288 6.9 -12.7°
Maximum altitude 11:53:05 56° 248° (WSW) 901 4.1 -11.8°
Drops below altitude 10° 11:58:01 10° 326° (NNW) 2,304 6.0 -10.8°
Enters shadow 11:58:36 - 328° (NNW) 2,532 6.2 -10.7°
